Time,TemperatureF,DewpointF,PressureIn,WindDirection,WindDirectionDegrees,WindSpeedMPH,WindSpeedGustMPH,Humidity,HourlyPrecipIn,Conditions,Clouds,dailyrainin,SoftwareType,DateUTC
2013-01-10 00:00:00,61.2,60.3,30.30,ESE,119,0.0,0.0,97,0.00,,,0.00,VWS V13.01,2013-01-10 05:00:00,
2013-01-10 00:01:00,61.2,60.3,30.30,ESE,119,0.0,0.0,97,0.00,,,0.00,VWS V13.01,2013-01-10 05:01:00,
2013-01-10 00:02:00,61.2,60.3,30.30,ESE,119,0.0,0.0,97,0.00,,,0.00,VWS V13.01,2013-01-10 05:02:00,
2013-01-10 00:04:00,61.2,60.3,30.30,ESE,119,0.0,0.0,97,0.00,,,0.00,VWS V13.01,2013-01-10 05:04:00,
2013-01-10 00:10:00,61.2,60.3,30.30,ESE,119,0.0,0.0,97,0.00,,,0.00,VWS V13.01,2013-01-10 05:10:00,
2013-01-10 00:15:00,61.3,60.5,30.30,ESE,119,0.0,0.0,97,0.00,,,0.00,VWS V13.01,2013-01-10 05:15:00,
2013-01-10 00:21:00,61.3,60.5,30.30,ESE,119,0.0,0.0,97,0.00,,,0.00,VWS V13.01,2013-01-10 05:21:00,
2013-01-10 00:26:00,61.3,60.8,30.30,ESE,119,0.0,0.0,98,0.00,,,0.00,VWS V13.01,2013-01-10 05:26:00,
2013-01-10 00:31:00,61.5,61.0,30.30,ESE,119,0.0,0.0,98,0.00,,,0.00,VWS V13.01,2013-01-10 05:31:00,
2013-01-10 00:36:00,61.5,61.0,30.30,ESE,119,0.0,0.0,98,0.00,,,0.00,VWS V13.01,2013-01-10 05:36:00,
2013-01-10 00:41:00,61.5,61.0,30.30,ESE,119,0.0,0.0,98,0.00,,,0.00,VWS V13.01,2013-01-10 05:41:00,
2013-01-10 00:46:00,61.7,61.1,30.30,ESE,119,0.0,0.0,98,0.00,,,0.00,VWS V13.01,2013-01-10 05:46:00,
2013-01-10 00:51:00,61.7,61.1,30.30,ESE,119,0.0,0.0,98,0.00,,,0.00,VWS V13.01,2013-01-10 05:51:00,
2013-01-10 00:56:00,61.7,61.1,30.30,ESE,119,0.0,0.0,98,0.00,,,0.00,VWS V13.01,2013-01-10 05:56:00,
2013-01-10 01:01:00,61.5,61.0,30.30,ESE,119,0.0,0.0,98,0.00,,,0.00,VWS V13.01,2013-01-10 06:01:00,
2013-01-10 01:07:00,61.5,61.0,30.30,ESE,119,0.0,0.0,98,0.00,,,0.00,VWS V13.01,2013-01-10 06:07:00,
2013-01-10 01:12:00,61.3,60.8,30.30,ESE,119,0.0,0.0,98,0.00,,,0.00,VWS V13.01,2013-01-10 06:12:00,
2013-01-10 01:17:00,61.3,60.8,30.30,ESE,119,0.0,0.0,98,0.00,,,0.00,VWS V13.01,2013-01-10 06:17:00,
2013-01-10 01:22:00,61.3,60.8,30.30,ESE,119,0.0,0.0,98,0.00,,,0.00,VWS V13.01,2013-01-10 06:22:00,
2013-01-10 01:28:00,61.3,60.8,30.30,ESE,119,0.0,0.0,98,0.00,,,0.00,VWS V13.01,2013-01-10 06:28:00,
2013-01-10 01:33:00,61.3,60.8,30.30,ESE,119,0.0,0.0,98,0.00,,,0.00,VWS V13.01,2013-01-10 06:33:00,
2013-01-10 01:38:00,61.3,60.8,30.30,ESE,119,0.0,0.0,98,0.00,,,0.00,VWS V13.01,2013-01-10 06:38:00,
2013-01-10 01:43:00,61.3,60.8,30.30,ESE,119,0.0,0.0,98,0.00,,,0.00,VWS V13.01,2013-01-10 06:43:00,
2013-01-10 01:48:00,61.3,60.8,30.30,ESE,119,0.0,0.0,98,0.00,,,0.00,VWS V13.01,2013-01-10 06:48:00,
2013-01-10 01:53:00,61.3,60.8,30.30,ESE,119,0.0,0.0,98,0.00,,,0.00,VWS V13.01,2013-01-10 06:53:00,
2013-01-10 01:58:00,61.3,60.8,30.30,ESE,119,0.0,0.0,98,0.00,,,0.00,VWS V13.01,2013-01-10 06:58:00,
2013-01-10 02:03:00,61.3,60.8,30.30,ESE,119,0.0,0.0,98,0.00,,,0.00,VWS V13.01,2013-01-10 07:03:00,
2013-01-10 02:08:00,61.3,60.8,30.30,ESE,119,0.0,0.0,98,0.00,,,0.00,VWS V13.01,2013-01-10 07:08:00,
2013-01-10 02:13:00,61.3,60.8,30.30,ESE,119,0.0,0.0,98,0.00,,,0.00,VWS V13.01,2013-01-10 07:13:00,
2013-01-10 02:19:00,61.2,60.6,30.30,ESE,119,0.0,0.0,98,0.00,,,0.00,VWS V13.01,2013-01-10 07:19:00,
2013-01-10 02:24:00,61.2,60.6,30.30,ESE,119,0.0,0.0,98,0.00,,,0.00,VWS V13.01,2013-01-10 07:24:00,
2013-01-10 02:30:00,61.0,60.4,30.30,ESE,119,0.0,0.0,98,0.00,,,0.00,VWS V13.01,2013-01-10 07:30:00,
2013-01-10 02:35:00,61.0,60.4,30.30,ESE,119,0.0,0.0,98,0.00,,,0.00,VWS V13.01,2013-01-10 07:35:00,
2013-01-10 02:40:00,61.0,60.4,30.30,ESE,119,0.0,0.0,98,0.00,,,0.00,VWS V13.01,2013-01-10 07:40:00,
2013-01-10 02:45:00,60.8,60.2,30.30,ESE,119,0.0,0.0,98,0.00,,,0.00,VWS V13.01,2013-01-10 07:45:00,
2013-01-10 02:50:00,60.8,60.2,30.30,ESE,119,0.0,0.0,98,0.00,,,0.00,VWS V13.01,2013-01-10 07:50:00,
2013-01-10 02:56:00,61.0,60.4,30.30,ESE,119,0.0,0.0,98,0.00,,,0.00,VWS V13.01,2013-01-10 07:56:00,
2013-01-10 03:01:00,61.0,60.4,30.30,ESE,119,0.0,0.0,98,0.00,,,0.00,VWS V13.01,2013-01-10 08:01:00,
2013-01-10 03:06:00,61.0,60.4,30.30,ESE,119,0.0,0.0,98,0.00,,,0.00,VWS V13.01,2013-01-10 08:06:00,
2013-01-10 03:11:00,61.0,60.4,30.30,ESE,119,0.0,0.0,98,0.00,,,0.00,VWS V13.01,2013-01-10 08:11:00,
2013-01-10 03:16:00,61.0,60.4,30.30,ESE,119,0.0,0.0,98,0.00,,,0.00,VWS V13.01,2013-01-10 08:16:00,
2013-01-10 03:21:00,61.0,60.4,30.30,ESE,119,0.0,0.0,98,0.00,,,0.00,VWS V13.01,2013-01-10 08:21:00,
2013-01-10 03:26:00,61.0,60.4,30.27,ESE,119,0.0,0.0,98,0.00,,,0.00,VWS V13.01,2013-01-10 08:26:00,
2013-01-10 03:31:00,61.0,60.4,30.27,ESE,119,0.0,0.0,98,0.00,,,0.00,VWS V13.01,2013-01-10 08:31:00,
2013-01-10 03:36:00,61.0,60.4,30.27,ESE,118,0.0,0.0,98,0.00,,,0.00,VWS V13.01,2013-01-10 08:36:00,
2013-01-10 03:41:00,61.0,60.4,30.27,ESE,119,0.0,0.0,98,0.00,,,0.00,VWS V13.01,2013-01-10 08:41:00,
2013-01-10 03:47:00,61.0,60.4,30.27,ESE,118,0.0,0.0,98,0.00,,,0.00,VWS V13.01,2013-01-10 08:47:00,
2013-01-10 03:52:00,61.0,60.4,30.27,ESE,118,0.0,0.0,98,0.00,,,0.00,VWS V13.01,2013-01-10 08:52:00,
2013-01-10 03:57:00,61.0,60.4,30.27,ESE,119,0.0,0.0,98,0.00,,,0.00,VWS V13.01,2013-01-10 08:57:00,
2013-01-10 04:02:00,61.0,60.4,30.27,ESE,118,0.0,0.0,98,0.00,,,0.00,VWS V13.01,2013-01-10 09:02:00,
2013-01-10 04:07:00,61.0,60.4,30.27,ESE,119,0.0,0.0,98,0.00,,,0.00,VWS V13.01,2013-01-10 09:07:00,
2013-01-10 04:12:00,61.0,60.4,30.27,ESE,119,0.0,0.0,98,0.00,,,0.00,VWS V13.01,2013-01-10 09:12:00,
2013-01-10 04:18:00,61.2,60.6,30.27,ESE,119,0.0,0.0,98,0.00,,,0.00,VWS V13.01,2013-01-10 09:18:00,
2013-01-10 04:23:00,61.2,60.6,30.27,ESE,119,0.0,0.0,98,0.00,,,0.00,VWS V13.01,2013-01-10 09:23:00,
2013-01-10 04:28:00,61.2,60.6,30.27,ESE,119,0.0,0.0,98,0.00,,,0.00,VWS V13.01,2013-01-10 09:28:00,
2013-01-10 04:33:00,61.3,60.8,30.27,ESE,119,0.0,0.0,98,0.00,,,0.00,VWS V13.01,2013-01-10 09:33:00,
2013-01-10 04:38:00,61.2,60.6,30.27,ESE,119,0.0,0.0,98,0.00,,,0.00,VWS V13.01,2013-01-10 09:38:00,
2013-01-10 04:44:00,61.0,60.4,30.27,ESE,119,0.0,0.0,98,0.00,,,0.00,VWS V13.01,2013-01-10 09:44:00,
2013-01-10 04:49:00,61.0,60.4,30.27,ESE,119,0.0,0.0,98,0.00,,,0.00,VWS V13.01,2013-01-10 09:49:00,
2013-01-10 04:54:00,60.8,60.2,30.27,ESE,119,0.0,0.0,98,0.00,,,0.00,VWS V13.01,2013-01-10 09:54:00,
2013-01-10 04:59:00,60.6,60.1,30.27,ESE,119,0.0,0.0,98,0.00,,,0.00,VWS V13.01,2013-01-10 09:59:00,
2013-01-10 05:04:00,60.6,60.1,30.27,ESE,120,0.0,0.0,98,0.00,,,0.00,VWS V13.01,2013-01-10 10:04:00,
2013-01-10 05:09:00,60.4,59.9,30.27,ESE,119,0.0,0.0,98,0.00,,,0.00,VWS V13.01,2013-01-10 10:09:00,
2013-01-10 05:14:00,60.4,59.9,30.27,ESE,119,0.0,0.0,98,0.00,,,0.00,VWS V13.01,2013-01-10 10:14:00,
2013-01-10 05:19:00,60.4,59.9,30.27,ESE,119,0.0,0.0,98,0.00,,,0.00,VWS V13.01,2013-01-10 10:19:00,
2013-01-10 05:24:00,60.3,59.7,30.27,ESE,118,0.0,0.0,98,0.00,,,0.00,VWS V13.01,2013-01-10 10:24:00,
2013-01-10 05:30:00,60.3,59.7,30.27,ESE,118,0.0,0.0,98,0.00,,,0.00,VWS V13.01,2013-01-10 10:30:00,
2013-01-10 05:36:00,60.3,59.7,30.27,ESE,119,0.0,0.0,98,0.00,,,0.00,VWS V13.01,2013-01-10 10:36:00,
2013-01-10 05:41:00,60.1,59.5,30.27,ESE,119,0.0,0.0,98,0.00,,,0.00,VWS V13.01,2013-01-10 10:41:00,
2013-01-10 05:46:00,60.1,59.5,30.27,ESE,119,0.0,0.0,98,0.00,,,0.00,VWS V13.01,2013-01-10 10:46:00,
2013-01-10 05:51:00,60.1,59.5,30.27,ESE,119,0.0,0.0,98,0.00,,,0.00,VWS V13.01,2013-01-10 10:51:00,
2013-01-10 05:56:00,60.1,59.5,30.27,ESE,119,0.0,0.0,98,0.00,,,0.00,VWS V13.01,2013-01-10 10:56:00,
2013-01-10 06:01:00,60.1,59.5,30.27,ESE,119,0.0,0.0,98,0.00,,,0.00,VWS V13.01,2013-01-10 11:01:00,
2013-01-10 06:07:00,60.1,59.5,30.27,ESE,118,0.0,0.0,98,0.00,,,0.00,VWS V13.01,2013-01-10 11:07:00,
2013-01-10 06:13:00,59.9,59.3,30.27,ESE,119,0.0,0.0,98,0.00,,,0.00,VWS V13.01,2013-01-10 11:13:00,
2013-01-10 06:18:00,59.9,59.3,30.27,ESE,118,0.0,0.0,98,0.00,,,0.00,VWS V13.01,2013-01-10 11:18:00,
2013-01-10 06:23:00,59.7,59.2,30.27,ESE,119,0.0,0.0,98,0.00,,,0.00,VWS V13.01,2013-01-10 11:23:00,
2013-01-10 06:28:00,59.7,59.2,30.27,ESE,119,0.0,0.0,98,0.00,,,0.00,VWS V13.01,2013-01-10 11:28:00,
2013-01-10 06:33:00,59.5,59.0,30.27,ESE,119,0.0,0.0,98,0.00,,,0.00,VWS V13.01,2013-01-10 11:33:00,
2013-01-10 06:38:00,59.5,59.0,30.27,ESE,119,0.0,0.0,98,0.00,,,0.00,VWS V13.01,2013-01-10 11:38:00,
2013-01-10 06:43:00,59.5,59.0,30.27,ESE,119,0.0,0.0,98,0.00,,,0.00,VWS V13.01,2013-01-10 11:43:00,
2013-01-10 06:48:00,59.5,59.0,30.27,ESE,119,0.0,0.0,98,0.00,,,0.00,VWS V13.01,2013-01-10 11:48:00,
2013-01-10 06:53:00,59.5,59.0,30.27,ESE,119,0.0,0.0,98,0.00,,,0.00,VWS V13.01,2013-01-10 11:53:00,
2013-01-10 06:58:00,59.5,59.0,30.30,ESE,119,0.0,0.0,98,0.00,,,0.00,VWS V13.01,2013-01-10 11:58:00,
2013-01-10 07:03:00,59.5,59.0,30.30,ESE,119,0.0,0.0,98,0.00,,,0.00,VWS V13.01,2013-01-10 12:03:00,
2013-01-10 07:08:00,59.5,59.0,30.30,ESE,119,0.0,0.0,98,0.00,,,0.00,VWS V13.01,2013-01-10 12:08:00,
2013-01-10 07:13:00,59.5,59.0,30.30,ESE,119,0.0,0.0,98,0.00,,,0.00,VWS V13.01,2013-01-10 12:13:00,
2013-01-10 07:18:00,59.5,59.0,30.30,ESE,119,0.0,0.0,98,0.00,,,0.00,VWS V13.01,2013-01-10 12:18:00,
2013-01-10 07:23:00,59.4,58.8,30.30,ESE,119,0.0,0.0,98,0.00,,,0.00,VWS V13.01,2013-01-10 12:23:00,
2013-01-10 07:28:00,59.4,58.8,30.30,ESE,119,0.0,0.0,98,0.00,,,0.00,VWS V13.01,2013-01-10 12:28:00,
2013-01-10 07:33:00,59.4,58.8,30.30,ESE,119,0.0,0.0,98,0.00,,,0.00,VWS V13.01,2013-01-10 12:33:00,
2013-01-10 07:38:00,59.4,58.8,30.30,ESE,119,0.0,0.0,98,0.00,,,0.00,VWS V13.01,2013-01-10 12:38:00,
2013-01-10 07:43:00,59.4,58.8,30.30,ESE,119,0.0,0.0,98,0.00,,,0.00,VWS V13.01,2013-01-10 12:43:00,
2013-01-10 07:48:00,59.7,59.2,30.30,ESE,119,0.0,0.0,98,0.00,,,0.00,VWS V13.01,2013-01-10 12:48:00,
2013-01-10 07:53:00,59.7,59.2,30.30,ESE,119,0.0,0.0,98,0.00,,,0.00,VWS V13.01,2013-01-10 12:53:00,
2013-01-10 07:58:00,59.9,59.3,30.30,ESE,119,0.0,0.0,98,0.00,,,0.00,VWS V13.01,2013-01-10 12:58:00,
2013-01-10 08:03:00,60.1,59.5,30.30,ESE,119,0.0,0.0,98,0.00,,,0.00,VWS V13.01,2013-01-10 13:03:00,
2013-01-10 08:08:00,60.3,59.7,30.30,ESE,118,0.0,0.0,98,0.00,,,0.00,VWS V13.01,2013-01-10 13:08:00,
2013-01-10 08:13:00,60.4,59.9,30.30,ESE,119,0.0,0.0,98,0.00,,,0.00,VWS V13.01,2013-01-10 13:13:00,
2013-01-10 08:18:00,60.8,60.2,30.30,ESE,119,0.0,0.0,98,0.00,,,0.00,VWS V13.01,2013-01-10 13:18:00,
2013-01-10 08:23:00,61.0,60.4,30.30,ESE,119,0.0,0.0,98,0.00,,,0.00,VWS V13.01,2013-01-10 13:23:00,
2013-01-10 08:28:00,61.0,60.4,30.30,ESE,119,0.0,0.0,98,0.00,,,0.00,VWS V13.01,2013-01-10 13:28:00,
2013-01-10 08:33:00,61.0,60.4,30.30,ESE,119,0.0,0.0,98,0.00,,,0.00,VWS V13.01,2013-01-10 13:33:00,
2013-01-10 08:38:00,61.0,60.4,30.30,ESE,119,0.0,0.0,98,0.00,,,0.00,VWS V13.01,2013-01-10 13:38:00,
2013-01-10 08:43:00,60.6,60.1,30.30,ESE,119,5.4,6.3,98,0.00,,,0.00,VWS V13.01,2013-01-10 13:43:00,
2013-01-10 08:48:00,60.1,59.5,30.30,ESE,119,3.2,7.5,98,0.00,,,0.00,VWS V13.01,2013-01-10 13:48:00,
2013-01-10 08:53:00,59.7,59.2,30.30,ESE,119,4.3,7.5,98,0.00,,,0.00,VWS V13.01,2013-01-10 13:53:00,
2013-01-10 08:58:00,59.7,59.2,30.30,ESE,119,0.0,5.0,98,0.00,,,0.00,VWS V13.01,2013-01-10 13:58:00,
2013-01-10 09:03:00,59.7,59.2,30.30,ESE,119,0.0,0.0,98,0.00,,,0.00,VWS V13.01,2013-01-10 14:03:00,
2013-01-10 09:08:00,59.7,59.2,30.30,ESE,119,0.0,0.0,98,0.00,,,0.00,VWS V13.01,2013-01-10 14:08:00,
2013-01-10 09:13:00,59.5,59.0,30.33,ESE,119,5.4,7.5,98,0.00,,,0.00,VWS V13.01,2013-01-10 14:13:00,
2013-01-10 09:18:00,59.4,58.8,30.33,ESE,119,0.0,6.3,98,0.00,,,0.00,VWS V13.01,2013-01-10 14:18:00,
2013-01-10 09:23:00,59.2,58.6,30.33,ESE,119,4.8,9.7,98,0.00,,,0.00,VWS V13.01,2013-01-10 14:23:00,
2013-01-10 09:28:00,59.2,58.6,30.33,ESE,119,5.4,8.8,98,0.00,,,0.00,VWS V13.01,2013-01-10 14:28:00,
2013-01-10 09:33:00,59.4,58.8,30.33,ESE,119,4.3,9.7,98,0.00,,,0.00,VWS V13.01,2013-01-10 14:33:00,
2013-01-10 09:38:00,59.7,59.2,30.33,ESE,119,0.0,6.3,98,0.00,,,0.00,VWS V13.01,2013-01-10 14:38:00,
2013-01-10 09:44:00,60.3,59.7,30.33,NNE,13,0.0,0.0,98,0.00,,,0.00,VWS V13.01,2013-01-10 14:44:00,
2013-01-10 09:49:00,60.6,60.1,30.33,NNE,29,3.2,12.2,98,0.00,,,0.00,VWS V13.01,2013-01-10 14:49:00,
2013-01-10 09:54:00,61.2,60.6,30.33,SSE,148,4.3,7.5,98,0.00,,,0.00,VWS V13.01,2013-01-10 14:54:00,
2013-01-10 10:00:00,61.5,61.0,30.33,NE,44,6.4,7.5,98,0.00,,,0.00,VWS V13.01,2013-01-10 15:00:00,
2013-01-10 10:05:00,61.7,61.1,30.33,NE,43,0.0,5.0,98,0.00,,,0.00,VWS V13.01,2013-01-10 15:05:00,
2013-01-10 10:10:00,61.9,61.3,30.30,NNE,14,6.4,7.5,98,0.00,,,0.00,VWS V13.01,2013-01-10 15:10:00,
2013-01-10 10:15:00,62.2,61.7,30.30,NNE,27,6.4,8.8,98,0.00,,,0.00,VWS V13.01,2013-01-10 15:15:00,
2013-01-10 10:20:00,62.4,61.8,30.30,NNE,17,0.0,7.5,98,0.00,,,0.00,VWS V13.01,2013-01-10 15:20:00,
2013-01-10 10:25:00,62.4,61.8,30.30,NNE,16,0.0,8.1,98,0.00,,,0.00,VWS V13.01,2013-01-10 15:25:00,
2013-01-10 10:30:00,62.2,61.7,30.30,NNE,16,0.0,8.8,98,0.00,,,0.00,VWS V13.01,2013-01-10 15:30:00,
2013-01-10 10:35:00,62.4,61.8,30.30,NE,50,0.0,6.3,98,0.00,,,0.00,VWS V13.01,2013-01-10 15:35:00,
2013-01-10 10:40:00,62.8,62.2,30.30,NNE,30,0.0,0.0,98,0.00,,,0.00,VWS V13.01,2013-01-10 15:40:00,
2013-01-10 10:45:00,63.0,62.4,30.30,East,89,5.4,8.8,98,0.00,,,0.00,VWS V13.01,2013-01-10 15:45:00,
2013-01-10 10:50:00,63.1,62.6,30.30,NE,37,0.0,0.0,98,0.00,,,0.00,VWS V13.01,2013-01-10 15:50:00,
2013-01-10 10:55:00,63.7,63.1,30.30,NNE,27,4.3,5.0,98,0.00,,,0.00,VWS V13.01,2013-01-10 15:55:00,
2013-01-10 11:00:00,63.9,63.3,30.30,East,81,5.4,6.3,98,0.00,,,0.00,VWS V13.01,2013-01-10 16:00:00,
2013-01-10 11:05:00,63.9,63.3,30.30,East,80,7.5,9.7,98,0.00,,BKN200,0.00,VWS V13.01,2013-01-10 16:05:00,
2013-01-10 11:10:00,64.2,63.7,30.27,ENE,77,7.5,11.0,98,0.00,,BKN200,0.00,VWS V13.01,2013-01-10 16:10:00,
2013-01-10 11:15:00,64.2,63.7,30.27,NE,37,4.3,9.7,98,0.00,,BKN200,0.00,VWS V13.01,2013-01-10 16:15:00,
2013-01-10 11:20:00,64.4,63.8,30.27,SSE,164,4.3,7.5,98,0.00,,BKN200,0.00,VWS V13.01,2013-01-10 16:20:00,
2013-01-10 11:25:00,64.6,64.0,30.27,SSE,163,3.2,6.3,98,0.00,,BKN200,0.00,VWS V13.01,2013-01-10 16:25:00,
2013-01-10 11:30:00,64.6,64.0,30.27,SSE,163,0.0,0.0,98,0.00,,BKN200,0.00,VWS V13.01,2013-01-10 16:30:00,
2013-01-10 11:35:00,64.8,64.2,30.27,SSE,163,0.0,4.4,98,0.00,,BKN200,0.00,VWS V13.01,2013-01-10 16:35:00,
2013-01-10 11:40:00,65.7,65.1,30.27,NNE,14,3.2,7.5,98,0.00,,BKN200,0.00,VWS V13.01,2013-01-10 16:40:00,
2013-01-10 11:46:00,65.5,64.9,30.27,NNE,31,0.0,0.0,98,0.00,,BKN200,0.00,VWS V13.01,2013-01-10 16:46:00,
2013-01-10 11:51:00,65.5,64.9,30.27,NNE,33,0.0,4.4,98,0.00,,BKN200,0.00,VWS V13.01,2013-01-10 16:51:00,
2013-01-10 11:56:00,66.2,65.6,30.27,NNE,16,6.4,11.0,98,0.00,,BKN200,0.00,VWS V13.01,2013-01-10 16:56:00,
2013-01-10 12:01:00,66.4,65.8,30.27,NNE,13,4.3,7.5,98,0.00,,BKN200,0.00,VWS V13.01,2013-01-10 17:01:00,
2013-01-10 12:06:00,66.7,66.2,30.27,NNE,18,0.0,7.5,98,0.00,,BKN200,0.00,VWS V13.01,2013-01-10 17:06:00,
2013-01-10 12:11:00,67.1,66.5,30.27,NE,39,4.3,8.8,98,0.00,,BKN200,0.00,VWS V13.01,2013-01-10 17:11:00,
2013-01-10 12:16:00,67.6,67.1,30.27,West,269,0.0,0.0,98,0.00,,BKN200,0.00,VWS V13.01,2013-01-10 17:16:00,
2013-01-10 12:21:00,67.8,67.2,30.27,NE,47,0.0,3.8,98,0.00,,BKN200,0.00,VWS V13.01,2013-01-10 17:21:00,
2013-01-10 12:26:00,67.8,67.2,30.27,SE,134,0.0,6.3,98,0.00,,BKN200,0.00,VWS V13.01,2013-01-10 17:26:00,
2013-01-10 12:32:00,67.6,67.1,30.27,SE,134,6.4,8.8,98,0.00,,BKN200,0.00,VWS V13.01,2013-01-10 17:32:00,
2013-01-10 12:37:00,68.0,67.1,30.27,ENE,58,5.9,7.5,97,0.00,,BKN200,0.00,VWS V13.01,2013-01-10 17:37:00,
2013-01-10 12:42:00,68.2,66.7,30.27,ENE,58,0.0,9.4,95,0.00,,BKN200,0.00,VWS V13.01,2013-01-10 17:42:00,
2013-01-10 12:47:00,68.9,67.1,30.27,ENE,58,0.0,6.3,94,0.00,,BKN200,0.00,VWS V13.01,2013-01-10 17:47:00,
2013-01-10 12:52:00,68.9,66.5,30.27,NNE,28,6.4,7.5,92,0.00,,BKN200,0.00,VWS V13.01,2013-01-10 17:52:00,
2013-01-10 12:57:00,68.9,65.5,30.27,NE,42,0.0,0.0,89,0.00,,BKN200,0.00,VWS V13.01,2013-01-10 17:57:00,
2013-01-10 13:02:00,69.4,64.7,30.27,NE,42,4.3,5.0,85,0.00,,BKN250,0.00,VWS V13.01,2013-01-10 18:02:00,
2013-01-10 13:08:00,69.8,64.1,30.27,South,190,0.0,0.0,82,0.00,,BKN250,0.00,VWS V13.01,2013-01-10 18:08:00,
2013-01-10 13:14:00,70.2,64.1,30.27,South,190,5.4,7.5,81,0.00,,BKN250,0.00,VWS V13.01,2013-01-10 18:14:00,
2013-01-10 13:19:00,70.2,62.6,30.27,South,190,6.4,9.7,77,0.00,,BKN250,0.00,VWS V13.01,2013-01-10 18:19:00,
2013-01-10 13:24:00,70.2,61.9,30.27,South,190,5.4,11.0,75,0.00,,BKN250,0.00,VWS V13.01,2013-01-10 18:24:00,
2013-01-10 13:29:00,70.3,61.3,30.27,NNE,33,3.2,3.8,73,0.00,,BKN250,0.00,VWS V13.01,2013-01-10 18:29:00,
2013-01-10 13:34:00,70.3,61.7,30.27,NNE,33,0.0,0.0,74,0.00,,BKN250,0.00,VWS V13.01,2013-01-10 18:34:00,
2013-01-10 13:40:00,70.3,62.4,30.24,ENE,65,5.4,7.5,76,0.00,,BKN250,0.00,VWS V13.01,2013-01-10 18:40:00,
2013-01-10 13:46:00,70.0,61.7,30.24,East,86,0.0,4.4,75,0.00,,BKN250,0.00,VWS V13.01,2013-01-10 18:46:00,
2013-01-10 13:51:00,69.8,60.8,30.24,East,86,0.0,3.8,73,0.00,,BKN250,0.00,VWS V13.01,2013-01-10 18:51:00,
2013-01-10 13:56:00,69.8,60.8,30.24,East,85,6.4,7.5,73,0.00,,BKN250,0.00,VWS V13.01,2013-01-10 18:56:00,
2013-01-10 14:01:00,69.8,60.4,30.24,NNE,32,0.0,11.0,72,0.00,,BKN200,0.00,VWS V13.01,2013-01-10 19:01:00,
2013-01-10 14:06:00,69.8,60.4,30.24,ENE,62,0.0,7.5,72,0.00,,BKN200,0.00,VWS V13.01,2013-01-10 19:06:00,
2013-01-10 14:11:00,69.8,60.4,30.24,ENE,60,6.4,7.5,72,0.00,,BKN200,0.00,VWS V13.01,2013-01-10 19:11:00,
2013-01-10 14:16:00,69.8,60.4,30.24,NNE,27,9.4,11.0,72,0.00,,BKN200,0.00,VWS V13.01,2013-01-10 19:16:00,
2013-01-10 14:21:00,69.6,60.2,30.24,NNE,29,0.0,8.8,72,0.00,,BKN200,0.00,VWS V13.01,2013-01-10 19:21:00,
2013-01-10 14:26:00,69.8,60.4,30.24,NE,53,0.0,0.0,72,0.00,,BKN200,0.00,VWS V13.01,2013-01-10 19:26:00,
2013-01-10 14:31:00,69.8,60.8,30.24,East,93,0.0,0.0,73,0.00,,BKN200,0.00,VWS V13.01,2013-01-10 19:31:00,
2013-01-10 14:36:00,69.6,60.2,30.24,NNE,27,9.4,11.0,72,0.00,,BKN200,0.00,VWS V13.01,2013-01-10 19:36:00,
2013-01-10 14:41:00,69.1,59.3,30.24,NNE,29,4.3,9.7,71,0.00,,BKN200,0.00,VWS V13.01,2013-01-10 19:41:00,
2013-01-10 14:46:00,68.7,59.3,30.24,NNE,13,5.4,7.5,72,0.00,,BKN200,0.00,VWS V13.01,2013-01-10 19:46:00,
2013-01-10 14:51:00,68.5,59.2,30.24,NNE,33,4.3,11.0,72,0.00,,BKN200,0.00,VWS V13.01,2013-01-10 19:51:00,
2013-01-10 14:56:00,68.4,59.4,30.24,NNE,30,4.3,11.0,73,0.00,,BKN200,0.00,VWS V13.01,2013-01-10 19:56:00,
2013-01-10 15:01:00,68.2,59.6,30.24,NE,35,6.4,12.2,74,0.00,,BKN200,0.00,VWS V13.01,2013-01-10 20:01:00,
2013-01-10 15:06:00,68.0,59.0,30.24,North,8,4.3,8.8,73,0.00,,BKN200,0.00,VWS V13.01,2013-01-10 20:06:00,
2013-01-10 15:11:00,67.8,58.9,30.27,ESE,102,4.3,7.5,73,0.00,,BKN200,0.00,VWS V13.01,2013-01-10 20:11:00,
2013-01-10 15:16:00,67.5,58.5,30.27,ESE,102,6.4,9.7,73,0.00,,BKN200,0.00,VWS V13.01,2013-01-10 20:16:00,
2013-01-10 15:22:00,67.3,58.7,30.27,ESE,103,0.0,8.8,74,0.00,,BKN200,0.00,VWS V13.01,2013-01-10 20:22:00,
2013-01-10 15:27:00,67.1,59.3,30.27,ESE,102,5.4,8.8,76,0.00,,BKN200,0.00,VWS V13.01,2013-01-10 20:27:00,
2013-01-10 15:32:00,66.7,58.9,30.27,NE,39,6.4,9.7,76,0.00,,BKN200,0.00,VWS V13.01,2013-01-10 20:32:00,
2013-01-10 15:37:00,66.6,58.8,30.27,NE,39,0.0,5.0,76,0.00,,BKN200,0.00,VWS V13.01,2013-01-10 20:37:00,
2013-01-10 15:42:00,66.6,59.1,30.27,NE,38,4.3,8.8,77,0.00,,BKN200,0.00,VWS V13.01,2013-01-10 20:42:00,
2013-01-10 15:47:00,66.6,59.5,30.27,NE,38,0.0,0.0,78,0.00,,BKN200,0.00,VWS V13.01,2013-01-10 20:47:00,
2013-01-10 15:52:00,66.4,59.3,30.27,NNE,16,5.4,9.7,78,0.00,,BKN200,0.00,VWS V13.01,2013-01-10 20:52:00,
2013-01-10 15:57:00,66.2,59.5,30.27,NNE,16,7.5,9.7,79,0.00,,BKN200,0.00,VWS V13.01,2013-01-10 20:57:00,
2013-01-10 16:02:00,66.0,59.3,30.27,NNE,33,0.0,7.5,79,0.00,,BKN250,0.00,VWS V13.01,2013-01-10 21:02:00,
2013-01-10 16:07:00,66.0,59.3,30.27,NE,44,5.4,7.5,79,0.00,,BKN250,0.00,VWS V13.01,2013-01-10 21:07:00,
2013-01-10 16:13:00,65.8,59.5,30.27,NE,52,6.4,7.5,80,0.00,,BKN250,0.00,VWS V13.01,2013-01-10 21:13:00,
2013-01-10 16:18:00,65.3,59.0,30.27,NNE,15,3.2,8.8,80,0.00,,BKN250,0.00,VWS V13.01,2013-01-10 21:18:00,
2013-01-10 16:23:00,64.8,58.5,30.27,NNE,21,6.4,9.7,80,0.00,,BKN250,0.00,VWS V13.01,2013-01-10 21:23:00,
2013-01-10 16:28:00,64.4,58.5,30.27,East,98,5.4,9.7,81,0.00,,BKN250,0.00,VWS V13.01,2013-01-10 21:28:00,
2013-01-10 16:34:00,64.4,58.8,30.27,NNE,19,6.4,11.0,82,0.00,,BKN250,0.00,VWS V13.01,2013-01-10 21:34:00,
2013-01-10 16:39:00,64.2,59.0,30.27,NNE,32,0.0,7.5,83,0.00,,BKN250,0.00,VWS V13.01,2013-01-10 21:39:00,
2013-01-10 16:44:00,63.9,58.6,30.27,NE,38,0.0,8.8,83,0.00,,BKN250,0.00,VWS V13.01,2013-01-10 21:44:00,
2013-01-10 16:49:00,63.9,58.6,30.27,NE,39,5.4,9.4,83,0.00,,BKN250,0.00,VWS V13.01,2013-01-10 21:49:00,
2013-01-10 16:54:00,63.7,58.8,30.27,ENE,57,3.2,7.5,84,0.00,,BKN250,0.00,VWS V13.01,2013-01-10 21:54:00,
2013-01-10 17:00:00,63.3,58.7,30.27,ENE,57,0.0,0.0,85,0.00,,BKN250,0.00,VWS V13.01,2013-01-10 22:00:00,
2013-01-10 17:05:00,63.1,58.6,30.27,ENE,58,0.0,6.3,85,0.00,,BKN250,0.00,VWS V13.01,2013-01-10 22:05:00,
2013-01-10 17:10:00,63.1,58.9,30.27,ENE,58,0.0,0.0,86,0.00,,BKN250,0.00,VWS V13.01,2013-01-10 22:10:00,
2013-01-10 17:15:00,63.0,58.7,30.27,ENE,58,0.0,5.0,86,0.00,,BKN250,0.00,VWS V13.01,2013-01-10 22:15:00,
2013-01-10 17:20:00,63.0,59.0,30.27,ENE,58,0.0,0.0,87,0.00,,BKN250,0.00,VWS V13.01,2013-01-10 22:20:00,
2013-01-10 17:25:00,63.0,59.4,30.27,ENE,58,0.0,0.0,88,0.00,,BKN250,0.00,VWS V13.01,2013-01-10 22:25:00,
2013-01-10 17:30:00,62.8,59.2,30.27,ENE,58,0.0,0.0,88,0.00,,BKN250,0.00,VWS V13.01,2013-01-10 22:30:00,
2013-01-10 17:35:00,63.0,59.4,30.27,ENE,57,0.0,0.0,88,0.00,,BKN250,0.00,VWS V13.01,2013-01-10 22:35:00,
2013-01-10 17:41:00,63.0,59.7,30.24,ENE,57,0.0,0.0,89,0.00,,BKN250,0.00,VWS V13.01,2013-01-10 22:41:00,
2013-01-10 17:46:00,63.1,59.8,30.24,ENE,57,0.0,0.0,89,0.00,,BKN250,0.00,VWS V13.01,2013-01-10 22:46:00,
2013-01-10 17:51:00,63.1,60.2,30.24,NE,38,3.2,8.8,90,0.00,,BKN250,0.00,VWS V13.01,2013-01-10 22:51:00,
2013-01-10 17:56:00,63.1,60.2,30.27,NE,38,0.0,0.0,90,0.00,,BKN250,0.00,VWS V13.01,2013-01-10 22:56:00,
2013-01-10 18:02:00,63.1,60.2,30.27,NE,38,0.0,6.3,90,0.00,,BKN250,0.00,VWS V13.01,2013-01-10 23:02:00,
2013-01-10 18:08:00,63.1,60.5,30.27,NE,39,0.0,0.0,91,0.00,,BKN250,0.00,VWS V13.01,2013-01-10 23:08:00,
2013-01-10 18:14:00,63.1,60.5,30.24,SE,125,0.0,0.0,91,0.00,,BKN250,0.00,VWS V13.01,2013-01-10 23:14:00,
2013-01-10 18:19:00,63.1,60.5,30.24,SE,125,0.0,0.0,91,0.00,,BKN250,0.00,VWS V13.01,2013-01-10 23:19:00,
2013-01-10 18:24:00,63.0,60.3,30.24,NNE,31,3.2,8.8,91,0.00,,BKN250,0.00,VWS V13.01,2013-01-10 23:24:00,
2013-01-10 18:29:00,62.8,60.1,30.27,ESE,119,4.8,6.3,91,0.00,,BKN250,0.00,VWS V13.01,2013-01-10 23:29:00,
2013-01-10 18:34:00,62.6,59.9,30.27,ESE,119,0.0,0.0,91,0.00,,BKN250,0.00,VWS V13.01,2013-01-10 23:34:00,
2013-01-10 18:39:00,62.2,59.6,30.27,ESE,119,0.0,6.3,91,0.00,,BKN250,0.00,VWS V13.01,2013-01-10 23:39:00,
2013-01-10 18:45:00,62.2,59.6,30.27,SE,125,0.0,6.3,91,0.00,,BKN250,0.00,VWS V13.01,2013-01-10 23:45:00,
2013-01-10 18:50:00,62.1,59.7,30.27,SE,125,0.0,0.0,92,0.00,,BKN250,0.00,VWS V13.01,2013-01-10 23:50:00,
2013-01-10 18:56:00,61.9,59.5,30.27,SE,125,0.0,0.0,92,0.00,,BKN250,0.00,VWS V13.01,2013-01-10 23:56:00,
2013-01-10 19:02:00,61.9,59.5,30.27,SE,125,0.0,0.0,92,0.00,,BKN250,0.00,VWS V13.01,2013-01-11 00:02:00,
2013-01-10 19:07:00,61.9,59.5,30.27,SE,125,0.0,0.0,92,0.00,,BKN250,0.00,VWS V13.01,2013-01-11 00:07:00,
2013-01-10 19:12:00,61.9,59.5,30.27,SE,125,0.0,0.0,92,0.00,,BKN250,0.00,VWS V13.01,2013-01-11 00:12:00,
2013-01-10 19:17:00,61.9,59.5,30.27,SE,125,0.0,0.0,92,0.00,,BKN250,0.00,VWS V13.01,2013-01-11 00:17:00,
2013-01-10 19:23:00,61.7,59.4,30.27,SE,125,0.0,0.0,92,0.00,,BKN250,0.00,VWS V13.01,2013-01-11 00:23:00,
2013-01-10 19:29:00,61.7,59.4,30.27,SE,125,0.0,0.0,92,0.00,,BKN250,0.00,VWS V13.01,2013-01-11 00:29:00,
2013-01-10 19:34:00,61.7,59.4,30.27,SE,125,0.0,0.0,92,0.00,,BKN250,0.00,VWS V13.01,2013-01-11 00:34:00,
2013-01-10 19:39:00,61.7,59.4,30.27,SE,125,0.0,0.0,92,0.00,,BKN250,0.00,VWS V13.01,2013-01-11 00:39:00,
2013-01-10 19:45:00,61.7,59.4,30.27,SE,125,0.0,0.0,92,0.00,,BKN250,0.00,VWS V13.01,2013-01-11 00:45:00,
2013-01-10 19:50:00,61.9,59.5,30.27,SE,125,0.0,0.0,92,0.00,,BKN250,0.00,VWS V13.01,2013-01-11 00:50:00,
2013-01-10 19:56:00,62.1,59.7,30.27,SE,125,0.0,0.0,92,0.00,,BKN250,0.00,VWS V13.01,2013-01-11 00:56:00,
2013-01-10 20:01:00,62.2,60.2,30.27,SE,125,0.0,0.0,93,0.00,,BKN250,0.00,VWS V13.01,2013-01-11 01:01:00,
2013-01-10 20:06:00,62.2,60.2,30.27,SE,125,0.0,0.0,93,0.00,,BKN250,0.00,VWS V13.01,2013-01-11 01:06:00,
2013-01-10 20:11:00,62.2,60.2,30.27,SE,125,0.0,0.0,93,0.00,,BKN250,0.00,VWS V13.01,2013-01-11 01:11:00,
2013-01-10 20:16:00,62.2,60.2,30.27,SE,125,0.0,0.0,93,0.00,,BKN250,0.00,VWS V13.01,2013-01-11 01:16:00,
2013-01-10 20:21:00,62.2,60.2,30.27,SE,125,0.0,0.0,93,0.00,,BKN250,0.00,VWS V13.01,2013-01-11 01:21:00,
2013-01-10 20:26:00,62.1,60.0,30.27,SE,125,0.0,0.0,93,0.00,,BKN250,0.00,VWS V13.01,2013-01-11 01:26:00,
2013-01-10 20:31:00,62.1,60.0,30.27,SE,125,0.0,0.0,93,0.00,,BKN250,0.00,VWS V13.01,2013-01-11 01:31:00,
2013-01-10 20:36:00,61.9,59.8,30.27,SE,125,0.0,0.0,93,0.00,,BKN250,0.00,VWS V13.01,2013-01-11 01:36:00,
2013-01-10 20:42:00,61.9,59.5,30.27,SE,125,0.0,0.0,92,0.00,,BKN250,0.00,VWS V13.01,2013-01-11 01:42:00,
2013-01-10 20:48:00,61.9,59.8,30.27,SE,125,0.0,0.0,93,0.00,,BKN250,0.00,VWS V13.01,2013-01-11 01:48:00,
2013-01-10 20:53:00,61.9,59.8,30.27,SE,125,0.0,0.0,93,0.00,,BKN250,0.00,VWS V13.01,2013-01-11 01:53:00,
2013-01-10 20:58:00,61.9,59.8,30.27,SE,125,0.0,0.0,93,0.00,,BKN250,0.00,VWS V13.01,2013-01-11 01:58:00,
2013-01-10 21:04:00,62.1,60.0,30.27,SE,125,0.0,0.0,93,0.00,,,0.00,VWS V13.01,2013-01-11 02:04:00,
2013-01-10 21:09:00,62.1,60.0,30.27,SE,125,0.0,0.0,93,0.00,,,0.00,VWS V13.01,2013-01-11 02:09:00,
2013-01-10 21:14:00,62.1,60.0,30.27,SE,125,0.0,0.0,93,0.00,,,0.00,VWS V13.01,2013-01-11 02:14:00,
2013-01-10 21:19:00,62.2,60.2,30.27,SE,125,0.0,0.0,93,0.00,,,0.00,VWS V13.01,2013-01-11 02:19:00,
2013-01-10 21:24:00,62.2,60.2,30.27,SE,125,0.0,0.0,93,0.00,,,0.00,VWS V13.01,2013-01-11 02:24:00,
2013-01-10 21:29:00,62.2,60.2,30.27,SE,125,0.0,0.0,93,0.00,,,0.00,VWS V13.01,2013-01-11 02:29:00,
2013-01-10 21:34:00,62.2,60.2,30.27,SE,125,0.0,0.0,93,0.00,,,0.00,VWS V13.01,2013-01-11 02:34:00,
2013-01-10 21:39:00,62.2,60.2,30.27,SE,125,0.0,0.0,93,0.00,,,0.00,VWS V13.01,2013-01-11 02:39:00,
2013-01-10 21:44:00,62.2,60.2,30.27,SE,125,0.0,0.0,93,0.00,,,0.00,VWS V13.01,2013-01-11 02:44:00,
2013-01-10 21:49:00,62.2,60.2,30.27,SE,125,0.0,0.0,93,0.00,,,0.00,VWS V13.01,2013-01-11 02:49:00,
2013-01-10 21:54:00,62.2,60.2,30.27,SE,125,0.0,0.0,93,0.00,,,0.00,VWS V13.01,2013-01-11 02:54:00,
2013-01-10 22:00:00,62.4,60.4,30.27,SE,125,0.0,0.0,93,0.00,,,0.00,VWS V13.01,2013-01-11 03:00:00,
2013-01-10 22:05:00,62.4,60.4,30.27,SE,125,0.0,0.0,93,0.00,,,0.00,VWS V13.01,2013-01-11 03:05:00,
2013-01-10 22:10:00,62.4,60.4,30.27,SE,125,0.0,0.0,93,0.00,,,0.00,VWS V13.01,2013-01-11 03:10:00,
2013-01-10 22:15:00,62.2,60.2,30.27,SE,125,0.0,0.0,93,0.00,,,0.00,VWS V13.01,2013-01-11 03:15:00,
2013-01-10 22:20:00,62.2,60.2,30.27,SE,125,0.0,0.0,93,0.00,,,0.00,VWS V13.01,2013-01-11 03:20:00,
2013-01-10 22:25:00,62.1,60.0,30.27,SE,125,0.0,0.0,93,0.00,,,0.00,VWS V13.01,2013-01-11 03:25:00,
2013-01-10 22:30:00,62.1,60.0,30.27,SE,125,0.0,0.0,93,0.00,,,0.00,VWS V13.01,2013-01-11 03:30:00,
2013-01-10 22:35:00,61.9,59.8,30.27,SE,125,0.0,0.0,93,0.00,,,0.00,VWS V13.01,2013-01-11 03:35:00,
2013-01-10 22:40:00,61.9,59.8,30.27,SE,125,0.0,0.0,93,0.00,,,0.00,VWS V13.01,2013-01-11 03:40:00,
2013-01-10 22:45:00,61.7,59.7,30.27,SE,125,0.0,0.0,93,0.00,,,0.00,VWS V13.01,2013-01-11 03:45:00,
2013-01-10 22:50:00,61.7,59.7,30.27,SE,125,0.0,0.0,93,0.00,,,0.00,VWS V13.01,2013-01-11 03:50:00,
2013-01-10 22:55:00,61.7,59.7,30.24,SE,125,0.0,0.0,93,0.00,,,0.00,VWS V13.01,2013-01-11 03:55:00,
2013-01-10 23:00:00,61.5,59.5,30.24,SE,125,0.0,0.0,93,0.00,,,0.00,VWS V13.01,2013-01-11 04:00:00,
2013-01-10 23:05:00,61.5,59.5,30.24,SE,125,0.0,0.0,93,0.00,,BKN250,0.00,VWS V13.01,2013-01-11 04:05:00,
2013-01-10 23:10:00,61.3,59.3,30.24,SE,125,0.0,0.0,93,0.00,,BKN250,0.00,VWS V13.01,2013-01-11 04:10:00,
2013-01-10 23:15:00,61.3,59.3,30.24,SE,125,0.0,0.0,93,0.00,,BKN250,0.00,VWS V13.01,2013-01-11 04:15:00,
2013-01-10 23:20:00,61.3,59.3,30.24,SE,125,0.0,0.0,93,0.00,,BKN250,0.00,VWS V13.01,2013-01-11 04:20:00,
2013-01-10 23:25:00,61.3,59.6,30.24,SE,125,0.0,0.0,94,0.00,,BKN250,0.00,VWS V13.01,2013-01-11 04:25:00,
2013-01-10 23:30:00,61.3,59.6,30.24,SE,125,0.0,0.0,94,0.00,,BKN250,0.00,VWS V13.01,2013-01-11 04:30:00,
2013-01-10 23:36:00,61.5,59.8,30.24,SE,125,0.0,0.0,94,0.00,,BKN250,0.00,VWS V13.01,2013-01-11 04:36:00,
2013-01-10 23:41:00,61.7,60.0,30.24,SE,125,0.0,0.0,94,0.00,,BKN250,0.00,VWS V13.01,2013-01-11 04:41:00,
2013-01-10 23:46:00,61.9,60.1,30.24,SE,125,0.0,0.0,94,0.00,,BKN250,0.00,VWS V13.01,2013-01-11 04:46:00,
2013-01-10 23:51:00,61.9,60.1,30.24,SE,125,0.0,0.0,94,0.00,,BKN250,0.00,VWS V13.01,2013-01-11 04:51:00,
2013-01-10 23:57:00,61.9,60.1,30.24,SE,125,0.0,0.0,94,0.00,,BKN250,0.00,VWS V13.01,2013-01-11 04:57:00,